Location: Munkebjergskolens Observatorium
(55.3864°N, 10.3987°E)
Time: 22:32:18
(UTC+01:00)

DELTA 1 DEB - Pass Details

Date: 10 December 2023
Orbit: 783 x 826 km, 98.9° (Epoch: 04 March)

Event Time Altitude Azimuth Distance (km) Brightness Sun altitude
Rises 06:48:16 0° 18° (NNE) 3,376 ? -13.6°
Reaches altitude 10° 06:50:42 10° 24° (NNE) 2,442 ? -13.3°
Maximum altitude 06:55:59 51° 100° (E) 1,032 ? -12.6°
Drops below altitude 10° 07:01:13 10° 177° (S) 2,427 ? -11.9°
Sets 07:03:38 0° 182° (S) 3,354 ? -11.6°
